Simultaneous Nadir Overpasses (SNOs) Predictions

Prediction of SNOs over PacNW region [( 10.00, 139.50) to ( 22.70, 165.60)] between AQUA and NPP Satellites:

Table of predicted SNOs over PacNW region for the next 30.0 days since TLE Epoch: 6/15/2018
Index Date (AQUA) Time (AQUA) AQUA Lat,Lon Date (NPP) Time (NPP) NPP Lat,Lon Distance(km) Time Diff (sec)
1 06/20/2018 15:59:41 22.59, 147.49 06/20/2018 16:01:39 23.21, 144.62 301.74 118
2 06/28/2018 15:10:11 22.60, 159.86 06/28/2018 15:10:54 23.17, 157.31 268.80 43
3 07/06/2018 15:59:32 22.63, 147.52 07/06/2018 16:01:35 23.29, 144.67 301.09 123




NCC Satellite Simultaneous Nadir Overpasses (SNOs) Prediction Service
